EHI
0 0 0 0 0 0 0 0 0 0 0 0 0 0 0 0 0 0 0 0 0 0 0 0 0 0 0 0 0 0 0 0 0 0 0 0 0 0 0 0 0 0 0
0 0 0 0 0 0 0 0 0 0 0 0 0 0 0 0 0 0 0 0 0 0 0 0 0 0 0 0 0 0 0 0 0 0 0 0 0 0 0 0 0 0 0
0 0 0 0 0 0 0 0 0 0 0 0 0 0 0 0 0 0 0 0 0 0 0 0 0 0 0 0 0 0 0 0 0 0 0 0 0 0 0 0 0 0 0
0 0 0 0 0 0 0 0 0 0 0 0 0 0 0 0 0 0 0 0 0 0 0 0 0 0 0 0 0 0 0 0 0 0 0 0 0 0 0 0 0 0 0
0 0 0 0 0 0 0 0 0 0 0 0 0 0 0 0 0 0 0 0 0 0 0 0 0 0 0 0 0 0 0 0 0 0 0 0 0 0 0 0 0 0 0
0 0 0 0 0 0 0 0 0 0 0 0 0 0 0 0 0 0 0 0 0 0 0 0 0 0 0 0 0 0 0 0 0 0 0 0 0 0 0 0 0 0 0
0 0 0 0 0 0 0 0 0 0 0 0 0 0 0 0 0 0 0 0 0 0 0 0 0 0 0 0 0 0 0 0 0 0 0 0 0 0 0 0 0 0 0
0 0 0 0 0 0 0 0 0 0 0 0 0 0 0 0 0 0 0 0 0 0 0 0 0 0 0 0 0 0 0 0 0 0 0 0 0 0 0 0 0 0 0
0 0 0 0 0 0 0 0 0 0 0 0 0 0 0 0 0 0 0 0 0 0 0 0 0 0 0 0 0 0 0 0 0 0 0 0 0 0 0 0 0 0 0
0 0 0 0 0 0 0 0 0 0 0 0 0 0 0 0 0 0 0 0 0 0 0 0 0 0 0 0 0 0 0 0 0 0 0 0 0 0 0 0 0 0 0
0 0 0 0 0 0 0 0 0 0 0 0 0 0 0 0 0 0 0 0 0 0 0 0 0 0 0 0 0 0 0 0 0 0 0 0 0 0 0 0 0 0 0
0 0 0 0 0 0 0 0 0 0 0 0 0 0 0 0 0 0 0 0 0 0 0 0 0 0 0 0 0 0 0 0 0 0 0 0 0 0 0 0 0 0 0
0 0 0 0 0 0 0 0 0 0 0 0 0 0 0 0 0 0 0 0 0 0 0 0 0 0 0 0 0 0 0 0 0 0 0 0 0 0 0 0 0 0 0
0 0 0 0 0 0 0 0 0 0 0 0 0 0 0 0 0 0 0 0 0 0 0 0 0 0 0 0 0 0 0 0 0 0 0 0 0 0 0 0 0 0 0
0 0 0 0 0 0 0 0 0 0 0 0 0 0 0 0 0 0 0 0 0 0 0 0 0 0 0 0 0 0 0 0 0 0 0 0 0 0 0 0 0 0 0
0 0 0 0 0 0 0 0 0 0 0 0 0 0 0 0 0 0 0 0 0 0 0 0 0 0 0 0 0 0 0 0 0 0 0 0 0 0 0 0 0 0 0
0 0 0 0 0 0 0 0 0 0 0 0 0 0 0 0 0 0 0 0 0 0 0 0 0 0 0 0 0 0 0 0 0 0 0 0 0 0 0 0 0 0 0
0 0 0 0 0 0 0 0 0 0 0 0 0 0 0 0 0 0 0 0 0 0 0 0 0 0 0 0 0 0 0 0 0 0 0 0 0 0 0 0 0 0 0
0 0 0 0 0 0 0 0 0 0 0 0 0 0 0 0 0 0 0 0 0 0 0 0 0 0 0 0 0 0 0 0 0 0 0 0 0 0 0 0 0 0 0
0 0 0 0 0 0 0 0 0 0 0 0 0 0 0 0 0 0 0 0 0 0 0 0 0 0 0 0 0 0 0 0 0 0 0 0 0 0 0 0 0 0 0
0 0 0 0 0 0 0 0 0 0 0 0 0 0 0 0 0 0 0 0 0 0 0 0 0 0 0 0 0 0 0 0 0 0 0 0 0 0 0 0 0 0 0
0 0 0 0 0 0 0 0 0 0 0 0 0 0 0 0 0 0 0 0 0 0 0 0 0 0 0 0 0 0 0 0 0 0 0 0 0 0 0 0 0 0 0
0 0 0 0 0 0 0 0 0 0 0 0 0 0 0 0 0 0 0 0 0 0 0 0 0 0 0 0 0 0 0 0 0 0 0 0 0 0 0 0 0 0 0
0 0 0 0 0 0 0 0 0 0 0 0 0 0 0 0 0 0 0 0 0 0 0 0 0 0 0 0 0 0 0 0 0 0 0 0 0 0 0 0 0 0 0
0 0 0 0 0 0 0 0 0 0 0 0 0 0 0 0 0 0 0 0 0 0 0 0 0 0 0 0 0 0 0 0 0 0 0 0 0 0 0 0 0 0 0
0 0 0 0 0 0 0 0 0 0 0 0 0 0 0 0 0 0 0 0 0 0 0 0 0 0 0 0 0 0 0 0 0 0 0 0 0 0 0 0 0 0 0
Wind_Speed
5 5 5 4 4 3 3 3 2 2 2 2 2 2 3 3 3 3 4 4 4 5 4 3 4 4 3 4 4 3 3 3 3 3 4 4 3 2 2 1 1 1 1
6 6 5 5 4 3 2 2 2 2 2 2 1 1 1 1 2 2 3 4 5 5 4 4 4 4 3 4 4 4 3 3 3 2 3 3 3 2 2 2 1 1 1
6 6 5 4 4 3 2 2 2 2 2 2 1 2 2 2 2 3 3 4 4 4 4 4 3 4 3 3 4 3 3 3 3 2 1 2 2 4 3 2 2 2 2
5 6 5 4 4 3 2 2 2 2 2 2 2 2 2 2 2 2 2 3 3 4 4 4 3 3 3 3 4 4 3 3 3 3 2 2 2 2 3 3 2 3 3
5 6 5 4 3 3 3 2 2 2 2 2 2 1 2 2 2 2 3 3 3 3 4 4 3 3 3 4 4 4 3 2 3 3 3 3 3 3 4 5 4 3 3
5 6 5 4 3 3 2 2 2 1 1 1 1 1 2 2 3 3 3 3 2 3 4 4 3 3 3 3 4 4 4 3 3 3 3 2 3 3 3 4 5 5 3
5 5 5 4 4 3 2 1 1 1 1 1 1 1 1 1 2 2 3 3 2 2 3 4 3 3 3 4 4 4 4 4 4 4 3 3 3 3 4 4 5 6 4
4 4 4 3 3 3 2 2 1 0 0 0 0 1 1 1 1 2 2 3 2 2 3 3 3 4 4 5 4 4 4 4 3 5 4 3 3 3 3 4 4 6 5
4 3 3 3 3 2 2 1 1 0 0 1 1 1 1 1 2 2 2 2 2 3 4 4 4 4 4 4 4 3 4 4 4 4 4 4 3 3 3 3 3 4 6
3 2 2 2 2 2 1 1 1 0 0 1 1 1 1 1 2 2 3 3 3 3 4 4 4 4 4 4 4 4 4 4 4 4 4 4 3 3 3 3 4 4 5
3 2 2 2 2 2 1 1 1 0 0 1 1 1 1 2 2 2 2 3 3 3 3 4 4 5 5 4 4 4 5 5 5 5 5 5 5 4 4 4 4 4 5
3 2 2 1 1 1 1 1 1 1 1 1 1 2 2 2 2 2 3 3 3 3 4 4 4 5 5 5 5 5 5 5 6 5 6 6 5 5 4 4 5 5 5
2 2 1 1 1 1 1 1 0 1 1 1 1 2 2 2 2 3 3 3 3 4 4 4 4 5 5 5 5 5 5 5 6 6 6 7 6 6 5 5 5 5 6
2 1 1 0 0 0 1 1 1 1 1 1 2 2 2 2 3 3 3 4 4 4 4 4 5 5 6 6 6 6 6 6 7 7 7 7 7 7 7 7 6 6 6
2 1 1 0 0 0 0 1 1 1 1 2 2 3 3 3 3 3 3 4 4 5 4 5 5 5 5 6 6 6 7 7 7 7 7 8 10 11 9 7 6 6 6
1 1 0 1 1 1 1 1 1 1 2 2 3 3 3 3 3 4 4 4 4 5 5 5 5 6 6 11 13 10 7 7 7 8 8 8 9 11 13 14 13 11 8
1 0 1 2 2 1 1 1 2 2 2 3 3 3 3 3 4 4 4 4 4 5 5 5 5 6 8 13 14 14 8 6 7 8 8 8 8 10 7 10 13 12 14
1 1 1 1 1 1 1 1 2 2 3 3 3 3 3 4 4 4 4 4 4 5 5 6 6 6 8 13 14 14 8 6 7 8 8 8 8 8 9 8 8 8 9
1 1 1 1 1 1 1 1 2 2 3 3 3 3 3 4 5 5 5 5 5 5 6 6 6 6 8 12 14 13 6 6 7 8 8 9 8 12 14 9 8 8 8
1 1 1 1 1 1 1 1 3 3 3 4 4 4 4 5 5 5 5 5 5 6 6 7 6 6 7 11 13 13 5 6 6 6 7 11 12 14 14 8 7 8 8
2 2 1 1 2 1 1 2 3 4 4 4 4 4 4 5 5 5 4 4 5 5 5 6 6 6 7 10 12 13 6 6 6 6 6 7 14 15 14 11 7 10 9
2 2 2 2 2 1 1 3 4 4 3 4 4 5 5 5 5 4 4 4 4 5 5 5 6 5 6 8 10 13 12 10 6 6 6 8 14 15 14 10 11 13 10
2 2 2 3 2 2 1 3 4 3 3 4 4 5 5 5 5 4 4 4 4 4 5 4 5 5 4 6 11 12 13 13 8 6 11 14 14 13 9 10 12 9 4
3 2 2 3 3 3 3 3 3 3 3 4 5 5 4 4 4 4 4 4 3 4 5 5 5 5 5 5 5 5 6 9 8 6 9 12 12 9 9 8 6 4 4
3 3 3 3 4 4 4 4 3 3 3 4 4 4 4 4 4 4 4 5 4 5 6 5 5 5 6 7 12 8 6 5 6 7 5 4 5 4 4 4 4 3 4
3 3 3 4 4 4 4 4 3 2 3 4 4 4 4 4 4 4 5 7 7 10 11 10 9 7 9 13 13 13 13 12 11 7 4 4 5 5 5 4 4 4 4
Wind_Direction
152 147 144 136 127 118 105 95 74 53 50 40 24 14 11 8 13 18 21 19 12 10 10 1 350 347 341 336 337 334 331 334 340 333 319 298 274 266 268 268 270 293 309
152 150 148 142 136 129 114 93 81 71 60 40 23 14 10 1 5 6 15 17 12 8 7 9 356 351 345 342 340 341 330 327 348 332 321 315 319 333 317 321 294 282 308
161 155 152 147 134 128 121 99 76 77 66 35 34 31 18 356 4 4 7 8 6 6 4 4 359 351 349 334 332 333 335 321 320 319 303 302 301 324 301 298 314 325 310
151 149 149 150 146 140 124 105 81 74 66 52 47 37 21 2 344 341 341 350 359 1 3 357 354 349 345 338 330 341 333 320 308 308 294 286 290 288 307 306 317 316 313
151 148 149 155 143 127 123 121 102 81 72 67 60 28 11 353 348 348 344 349 353 358 358 353 349 344 341 341 333 328 327 319 307 303 302 302 302 277 270 286 294 299 296
146 143 141 141 130 122 121 126 116 83 76 75 56 26 5 353 349 348 341 343 345 345 352 349 349 342 340 334 326 317 310 306 298 294 289 287 284 286 286 285 294 292 288
142 141 144 144 140 135 130 131 130 89 64 71 50 357 358 348 330 331 331 330 333 333 332 340 336 331 332 326 319 312 301 299 299 291 286 285 281 283 282 281 286 290 291
133 135 140 141 140 137 136 152 158 130 58 38 352 348 3 345 315 321 323 312 309 312 319 327 324 323 320 320 318 308 302 301 300 301 299 291 285 283 276 273 284 291 289
139 136 132 130 131 138 150 162 165 168 11 329 337 329 344 327 315 313 318 309 309 313 323 322 321 319 317 312 308 301 306 304 299 294 294 289 284 281 277 273 267 271 282
126 123 123 127 134 143 142 128 136 163 255 311 314 330 321 308 309 309 308 310 310 315 311 312 314 314 313 309 304 303 303 307 301 292 292 292 290 282 279 273 270 265 268
139 140 144 148 147 131 126 127 148 167 243 286 301 303 292 299 306 299 297 307 307 306 306 307 308 308 307 305 302 302 303 300 299 297 295 291 290 283 274 268 263 262 261
139 147 151 147 144 143 142 147 193 211 236 264 286 279 284 292 298 299 298 301 304 302 304 305 305 304 305 304 301 298 300 297 297 296 294 290 289 286 281 273 266 262 259
135 139 142 137 150 159 160 169 223 261 287 279 279 278 278 285 286 290 295 297 300 297 300 301 300 300 300 300 298 296 294 292 291 290 286 285 283 281 280 275 270 266 266
152 155 143 132 191 167 175 204 253 263 284 275 265 268 269 272 276 281 290 293 296 295 294 297 297 297 298 297 294 296 294 289 286 285 282 280 277 276 277 272 267 267 265
167 164 171 242 308 301 248 237 255 266 273 267 261 261 269 273 280 284 287 291 295 298 294 293 294 294 293 289 290 287 289 287 286 285 283 280 280 279 279 277 272 268 263
186 176 247 281 274 282 282 279 273 283 277 266 261 267 271 275 278 280 284 291 292 291 290 288 288 290 295 299 300 299 291 289 289 289 287 283 281 283 287 288 287 281 273
218 227 249 261 265 259 278 279 282 290 280 275 271 266 272 280 281 287 289 286 288 291 288 286 284 284 288 297 300 301 303 296 290 289 290 291 289 291 281 284 287 285 282
309 263 249 260 272 263 273 285 298 289 279 281 282 288 284 282 284 282 281 282 282 283 281 281 279 281 288 298 300 304 304 292 290 289 286 285 285 284 284 278 278 275 275
323 280 244 256 254 259 277 300 294 288 285 288 291 292 293 289 283 281 280 281 280 281 280 281 279 280 287 296 299 305 294 289 287 287 289 289 284 288 291 286 281 281 279
355 335 336 338 304 285 279 275 281 281 280 286 293 293 289 285 282 275 275 277 280 283 289 291 285 279 279 291 301 305 292 290 291 290 289 291 292 293 293 284 278 279 281
350 354 350 322 298 292 268 270 276 277 287 298 298 295 291 285 280 277 275 275 281 283 280 283 284 279 285 296 301 303 300 294 294 294 294 294 299 299 298 294 280 281 289
346 347 337 313 309 304 277 280 281 290 301 300 296 293 290 291 295 286 284 279 278 280 280 282 287 282 286 298 300 305 307 309 298 293 293 294 300 302 303 298 294 295 296
328 330 315 309 307 299 274 278 291 301 300 295 293 294 296 295 297 288 287 287 283 286 293 291 293 297 297 298 306 308 309 309 305 295 299 303 305 306 301 298 300 300 289
321 324 317 312 312 313 304 287 296 297 291 291 296 299 298 299 299 297 292 289 285 286 292 296 297 298 298 294 297 298 301 305 305 302 303 309 310 306 301 300 299 290 279
310 307 300 297 303 311 303 301 299 296 294 294 297 303 304 302 299 298 288 290 273 278 288 285 285 293 297 301 311 313 307 306 303 311 306 305 308 305 304 302 294 287 284
307 307 302 300 303 305 302 301 296 289 290 300 303 302 302 302 304 304 307 302 302 305 306 306 305 303 304 312 315 318 318 320 321 320 313 312 315 314 312 307 302 298 288